Fulton, NY

12:17 PM EST on February 19, 2017 (GMT -0500)
Oswego County

Weather History for KFZY - February, 2014

Change the Weather History Date:

Thursday, February 13, 2014

  Actual Average (KSYR) Record (KSYR)
Temperature  
Mean Temperature 20 °F -  
Max Temperature 28 °F 32 °F 58 °F (1937)
Min Temperature 12 °F 13 °F -22 °F (1967)
Degree Days  
Heating Degree Days 45    
Moisture  
Dew Point 15 °F    
Average Humidity 74    
Maximum Humidity 86    
Minimum Humidity 54    
Precipitation  
Precipitation 0.01 in - - ()
Sea Level Pressure  
Sea Level Pressure 29.78 in    
Wind  
Wind Speed 7 mph (NNE)    
Max Wind Speed 20 mph    
Max Gust Speed 24 mph    
Visibility 5 miles    
Events Snow    
Averages and records for this station are not official NWS values.
T = Trace of Precipitation, MM = Missing Value Source: NWS Daily Summary

Daily Weather History Graph

Daily Weather History Graph

Search for Another Location

Airport or City:

Trip Planner

Search our weather history database for the weather conditions in past years. The results will help you decide how hot, cold, wet, or windy it might be!

Date:

Astronomy

Feb. 13, 2014 Rise Set
Actual Time 7:06 AM EST 5:33 PM EST
Civil Twilight 6:37 AM EST 6:03 PM EST
Nautical Twilight 6:03 AM EST 6:36 PM EST
Astronomical Twilight 5:30 AM EST 7:09 PM EST
Moon 4:40 PM EST (2/13) 5:58 AM EST (2/13)
Length of Visible Light 11h 26m
Length of Day
10h 27m
Waxing Gibbous, 98% of the Moon is Illuminated
Feb 13
Waxing Gibbous
Feb 14
Full
Feb 22
Last Quarter
Mar 1
New
Mar 8
First Quarter

Hourly Weather History & Observations

Time (EST) Temp. Windchill Dew Point Humidity Pressure Visibility Wind Dir Wind Speed Gust Speed Precip Events Conditions
12:54 AM 12.9 °F 6.9 °F -0.9 °F 54% 30.23 in 10.0 mi SE 3.5 mph - N/A   Clear
1:54 AM 12.9 °F 5.2 °F -0.0 °F 56% 30.22 in 10.0 mi SE 4.6 mph - N/A   Partly Cloudy
2:54 AM 12.9 °F 6.9 °F 1.0 °F 59% 30.20 in 10.0 mi SE 3.5 mph - N/A   Partly Cloudy
3:54 AM 14.0 °F 8.2 °F 3.0 °F 62% 30.19 in 10.0 mi SE 3.5 mph - N/A   Partly Cloudy
4:54 AM 15.1 °F 7.7 °F 3.9 °F 61% 30.17 in 10.0 mi ESE 4.6 mph - N/A   Clear
5:54 AM 15.1 °F 7.7 °F 3.0 °F 59% 30.15 in 10.0 mi ESE 4.6 mph - N/A   Clear
6:54 AM 14.0 °F 8.2 °F 1.9 °F 59% 30.13 in 10.0 mi East 3.5 mph - N/A   Clear
7:54 AM 14.0 °F - 1.9 °F 59% 30.10 in 10.0 mi Calm Calm - N/A   Partly Cloudy
8:54 AM 16.0 °F 10.4 °F 3.0 °F 57% 30.07 in 10.0 mi ESE 3.5 mph - N/A   Scattered Clouds
9:54 AM 19.9 °F 13.4 °F 6.1 °F 55% 30.04 in 10.0 mi East 4.6 mph - N/A   Scattered Clouds
10:54 AM 23.0 °F 17.0 °F 12.9 °F 65% 30.01 in 10.0 mi East 4.6 mph - N/A   Overcast
11:54 AM 26.1 °F 20.5 °F 16.0 °F 66% 29.96 in 10.0 mi East 4.6 mph - N/A   Overcast
12:54 PM 28.0 °F 22.8 °F 17.1 °F 63% 29.91 in 10.0 mi ENE 4.6 mph - N/A   Overcast
1:03 PM 28.4 °F 20.4 °F 17.6 °F 64% 29.88 in 10.0 mi NE 8.1 mph - N/A   Overcast
1:45 PM 26.6 °F 20.0 °F 17.6 °F 69% 29.84 in 9.0 mi North 5.8 mph - N/A   Overcast
1:54 PM 27.0 °F 20.5 °F 19.0 °F 72% 29.86 in 4.0 mi NNE 5.8 mph - 0.00 in Snow Light Snow
2:30 PM 26.6 °F 20.0 °F 19.4 °F 74% 29.80 in 2.5 mi North 5.8 mph - 0.00 in Snow Light Snow
2:43 PM 26.6 °F 19.1 °F 19.4 °F 74% 29.79 in 1.8 mi North 6.9 mph - 0.00 in Snow Light Snow
2:54 PM 27.0 °F 20.5 °F 19.9 °F 75% 29.81 in 2.0 mi North 5.8 mph - 0.00 in Snow Light Snow
3:07 PM 26.6 °F 19.1 °F 19.4 °F 74% 29.76 in 3.0 mi North 6.9 mph - 0.00 in Snow Light Snow
3:17 PM 26.6 °F 19.1 °F 19.4 °F 74% 29.76 in 2.5 mi North 6.9 mph - 0.00 in Snow Light Snow
3:47 PM 26.6 °F 19.1 °F 19.4 °F 74% 29.73 in 1.8 mi North 6.9 mph - 0.00 in Snow Light Snow
3:54 PM 27.0 °F 19.5 °F 19.9 °F 75% 29.75 in 1.8 mi North 6.9 mph - 0.00 in Snow Light Snow
4:27 PM 26.6 °F 18.2 °F 21.2 °F 80% 29.69 in 2.0 mi North 8.1 mph - 0.00 in Snow Light Snow
4:54 PM 26.1 °F 15.6 °F 19.9 °F 78% 29.70 in 1.8 mi North 11.5 mph - 0.00 in Snow Light Snow
5:31 PM 24.8 °F 13.4 °F 19.4 °F 80% 29.66 in 1.0 mi North 12.7 mph - 0.00 in Snow Light Snow
5:44 PM 24.8 °F 13.4 °F 19.4 °F 80% 29.65 in 1.2 mi North 12.7 mph - 0.00 in Snow Light Snow
5:54 PM 25.0 °F 13.6 °F 19.9 °F 81% 29.67 in 1.2 mi North 12.7 mph - 0.00 in Snow Light Snow
6:54 PM 24.1 °F 11.5 °F 19.0 °F 81% 29.63 in 1.2 mi North 15.0 mph 20.7 mph 0.00 in Snow Light Snow
7:54 PM 23.0 °F 9.2 °F 19.0 °F 85% 29.59 in 1.2 mi North 17.3 mph 23.0 mph 0.00 in Snow Light Snow
8:18 PM 23.0 °F 8.7 °F 19.4 °F 86% 29.55 in 1.0 mi North 18.4 mph 24.2 mph 0.00 in Snow Light Snow
8:26 PM 23.0 °F 9.6 °F 19.4 °F 86% 29.54 in 0.8 mi North 16.1 mph 24.2 mph 0.00 in Snow Light Snow
8:54 PM 21.9 °F 8.7 °F 18.0 °F 85% 29.55 in 0.8 mi North 15.0 mph 23.0 mph 0.01 in Snow Light Snow
9:02 PM 21.2 °F 7.8 °F 17.6 °F 86% 29.51 in 1.0 mi North 15.0 mph 21.9 mph 0.00 in Snow Light Snow
9:16 PM 21.2 °F 8.3 °F 17.6 °F 86% 29.51 in 1.2 mi North 13.8 mph 21.9 mph 0.00 in Snow Light Snow
9:23 PM 21.2 °F 8.3 °F 17.6 °F 86% 29.50 in 1.2 mi North 13.8 mph 21.9 mph 0.00 in Snow Light Snow
9:35 PM 21.2 °F 6.8 °F 17.6 °F 86% 29.48 in 1.5 mi North 17.3 mph 24.2 mph 0.00 in Snow Light Snow
9:54 PM 21.9 °F 8.2 °F 18.0 °F 85% 29.49 in 1.8 mi North 16.1 mph 24.2 mph 0.00 in Snow Light Snow
10:10 PM 21.2 °F 8.9 °F 17.6 °F 86% 29.47 in 2.0 mi North 12.7 mph 20.7 mph 0.00 in Snow Light Snow
10:26 PM 21.2 °F 6.0 °F 17.6 °F 86% 29.45 in 1.5 mi North 19.6 mph - 0.00 in Snow Light Snow
10:54 PM 21.9 °F 7.3 °F 18.0 °F 85% 29.45 in 1.5 mi North 18.4 mph 24.2 mph 0.00 in Snow Light Snow
11:54 PM 21.0 °F 7.1 °F 17.1 °F 85% 29.42 in 1.8 mi North 16.1 mph - 0.00 in   Overcast